Location: Perryvale
(54.4667°N, 113.3833°W)
Time: 23:59:43
(UTC+00:00)

SR - Pass Details

Date: 24 May 2024
Orbit: 580 x 858 km, 66.7° (Epoch: 13 June)

Event Time Altitude Azimuth Distance (km) Brightness Sun altitude
Rises 05:41:55 0° 302° (WNW) 3,023 ? -11.2°
Reaches altitude 10° 05:44:59 10° 321° (NW) 2,054 ? -11.3°
Maximum altitude 05:48:08 18° 4° (N) 1,553 ? -11.5°
Drops below altitude 10° 05:51:10 10° 48° (NE) 1,964 ? -11.7°
Sets 05:54:01 0° 68° (ENE) 2,836 ? -11.9°
